This is the latest recevied weather packets stored in our database for station/object KD4UFD. If no packets are shown the sender has not sent any weather packets the latest 10 day(s).
| Time | Temp. | Humidity | Pressure | Rain* | Wind** | Luminosity | Snow |
|---|---|---|---|---|---|---|---|
| 1777636581 | 9.44° C | 87% | 1014.1 hPa | 0 mm | - | 63 W/m² | - |
| 1777636278 | 8.89° C | 88% | 1014.1 hPa | 0 mm | - | 57 W/m² | - |
| 1777635978 | 8.89° C | 89% | 1014.4 hPa | 0 mm | - | 46 W/m² | - |
| 1777635674 | 8.89° C | 89% | 1014.3 hPa | 0 mm | - | 37 W/m² | - |
| 1777635371 | 8.33° C | 90% | 1014 hPa | 0 mm | - | 33 W/m² | - |
| 1777635068 | 8.33° C | 90% | 1014.1 hPa | 0 mm | - | 29 W/m² | - |
| 1777634763 | 8.33° C | 90% | 1014.2 hPa | 0 mm | - | 25 W/m² | - |
| 1777634461 | 8.33° C | 91% | 1014.2 hPa | 0 mm | - | 26 W/m² | - |
| 1777634158 | 7.78° C | 91% | 1014.1 hPa | 0 mm | - | 21 W/m² | - |
| 1777633854 | 7.78° C | 91% | 1014.1 hPa | 0 mm | - | 18 W/m² | - |
| 1777633552 | 7.78° C | 91% | 1014.3 hPa | 0 mm | - | 16 W/m² | - |
| 1777633250 | 7.78° C | 91% | 1014 hPa | 0 mm | - | 11 W/m² | - |
| 1777632947 | 7.78° C | 90% | 1014.1 hPa | 0 mm | - | 6 W/m² | - |
| 1777632643 | 7.78° C | 90% | 1013.9 hPa | 0 mm | - | 3 W/m² | - |
| 1777632340 | 7.78° C | 90% | 1013.9 hPa | 0 mm | - | 1 W/m² | - |
| 1777632037 | 7.78° C | 89% | 1014 hPa | 0 mm | - | 0 W/m² | - |
| 1777631735 | 7.78° C | 89% | 1013.9 hPa | 0 mm | - | 0 W/m² | - |
| 1777631432 | 7.78° C | 89% | 1014.1 hPa | 0 mm | - | 0 W/m² | - |
| 1777631129 | 7.78° C | 89% | 1014.1 hPa | 0 mm | - | 0 W/m² | - |
| 1777630826 | 7.78° C | 89% | 1014 hPa | 0 mm | - | 0 W/m² | - |
| 1777630522 | 8.33° C | 89% | 1014.1 hPa | 0 mm | - | 0 W/m² | - |
| 1777630219 | 7.78° C | 89% | 1014.1 hPa | 0 mm | - | 0 W/m² | - |
| 1777629917 | 7.78° C | 89% | 1014 hPa | 0 mm | - | 0 W/m² | - |
| 1777629615 | 7.78° C | 89% | 1014.4 hPa | 0 mm | - | 0 W/m² | - |
| 1777629311 | 7.78° C | 89% | 1014.5 hPa | 0 mm | - | 0 W/m² | - |
* Rain latest hour (hover to see other rain measurements)
** Current wind speed in m/s (hover to see current wind gust speed)